Weather History for Crestview, FL

Change the Weather History Date:

Wednesday, November 14, 2012

  Actual Average Record
Temperature  
Mean Temperature 48 °F -  
Max Temperature 57 °F - - ()
Min Temperature 38 °F - - ()
Degree Days  
Heating Degree Days 18    
Moisture  
Dew Point 46 °F    
Average Humidity 91    
Maximum Humidity 100    
Minimum Humidity 75    
Precipitation  
Precipitation 0.02 in - - ()
Sea Level Pressure  
Sea Level Pressure 30.23 in    
Wind  
Wind Speed 5 mph (North)    
Max Wind Speed 8 mph    
Max Gust Speed -    
Visibility 7 miles    
Events Fog , Rain    
T = Trace of Precipitation, MM = Missing Value Source: NWS Daily Summary

Daily Weather History Graph

Daily Weather History Graph

Search for Another Location

Airport:

Trip Planner

Search our weather history database for the weather conditions in past years. The results will help you decide how hot, cold, wet, or windy it might be!

Date:

Astronomy

Nov. 14, 2012 Rise Set
Actual Time 6:11 AM CST 4:49 PM CST
Civil Twilight 5:46 AM CST 5:14 PM CST
Nautical Twilight 5:17 AM CST 5:43 PM CST
Astronomical Twilight 4:48 AM CST 6:12 PM CST
Moon 6:56 AM CST (11/14) 5:41 PM CST (11/14)
Length of Visible Light 11h 28m
Length of Day
10h 37m
New Moon, 1% of the Moon is Illuminated
Nov 14
New Moon
Nov 20
First Quarter
Nov 28
Full
Dec 6
Last Quarter
Dec 13
New

Hourly Weather History & Observations

Time (CST) Temp. Windchill Dew Point Humidity Pressure Visibility Wind Dir Wind Speed Gust Speed Precip Events Conditions
12:55 AM 39.9 °F 35.1 °F 32.7 °F 75% 30.22 in 10.0 mi North 6.9 mph - N/A   Clear
1:55 AM 38.8 °F 34.6 °F 32.5 °F 78% 30.22 in 10.0 mi North 5.8 mph - N/A   Clear
2:55 AM 39.2 °F 35.0 °F 32.9 °F 78% 30.22 in 10.0 mi North 5.8 mph - N/A   Clear
3:55 AM 39.2 °F 34.2 °F 33.4 °F 80% 30.22 in 10.0 mi North 6.9 mph - N/A   Clear
4:55 AM 38.8 °F 34.6 °F 33.6 °F 82% 30.22 in 10.0 mi North 5.8 mph - N/A   Clear
5:55 AM 39.6 °F 36.3 °F 34.5 °F 82% 30.23 in 10.0 mi North 4.6 mph - N/A   Clear
6:14 AM 39.2 °F 35.9 °F 35.6 °F 87% 30.23 in 10.0 mi NNW 4.6 mph - N/A   Partly Cloudy
6:23 AM 39.2 °F 35.0 °F 35.6 °F 87% 30.23 in 10.0 mi North 5.8 mph - N/A   Mostly Cloudy
6:29 AM 39.2 °F 35.0 °F 35.6 °F 87% 30.24 in 10.0 mi North 5.8 mph - N/A   Mostly Cloudy
6:32 AM 39.2 °F 35.0 °F 35.6 °F 87% 30.24 in 10.0 mi North 5.8 mph - N/A   Mostly Cloudy
6:49 AM 41.0 °F 39.0 °F 37.4 °F 87% 30.25 in 10.0 mi North 3.5 mph - N/A   Overcast
6:55 AM 41.2 °F 39.2 °F 37.0 °F 85% 30.25 in 10.0 mi NNW 3.5 mph - N/A   Overcast
7:01 AM 41.0 °F 38.0 °F 37.4 °F 87% 30.25 in 10.0 mi North 4.6 mph - N/A   Overcast
7:55 AM 44.6 °F - 43.2 °F 95% 30.27 in 3.0 mi North - - N/A   Overcast
7:57 AM 44.6 °F 42.2 °F 42.8 °F 93% 30.27 in 2.5 mi NNW 4.6 mph - N/A   Overcast
8:00 AM 44.6 °F 41.4 °F 44.6 °F 100% 30.26 in 2.0 mi NNW 5.8 mph - N/A   Overcast
8:01 AM 44.6 °F 41.4 °F 44.6 °F 100% 30.26 in 2.5 mi NNW 5.8 mph - N/A   Overcast
8:05 AM 44.6 °F 42.2 °F 44.6 °F 100% 30.26 in 3.0 mi NNW 4.6 mph - N/A   Overcast
8:45 AM 50.0 °F - 47.5 °F 91% 30.26 in 5.0 mi NNE 4.6 mph - N/A   Overcast
9:16 AM 51.8 °F - 48.2 °F 88% 30.25 in 9.0 mi NNE 4.6 mph - N/A   Overcast
9:28 AM 51.8 °F - 48.2 °F 88% 30.25 in 10.0 mi NNE 3.5 mph - N/A   Overcast
9:42 AM 51.8 °F - 48.2 °F 88% 30.25 in 10.0 mi NNE 4.6 mph - N/A   Overcast
9:55 AM 52.7 °F - 48.2 °F 85% 30.26 in 10.0 mi NE 3.5 mph - N/A   Overcast
10:55 AM 55.0 °F - 50.0 °F 83% 30.25 in 6.0 mi NNW 4.6 mph - N/A Rain Light Rain
11:18 AM 53.6 °F - 50.0 °F 88% 30.24 in 3.0 mi North 3.5 mph - N/A   Overcast
11:55 AM 54.5 °F - 52.5 °F 93% 30.23 in 6.0 mi North 2.3 mph - 0.02 in   Overcast
12:48 PM 55.4 °F - 51.8 °F 88% 30.22 in 10.0 mi NNE 4.6 mph - N/A   Overcast
12:55 PM 55.8 °F - 52.3 °F 88% 30.22 in 10.0 mi North 4.6 mph - N/A   Overcast
1:55 PM 56.8 °F - 52.7 °F 86% 30.20 in 10.0 mi NNE 5.8 mph - N/A   Overcast
2:55 PM 57.0 °F - 52.9 °F 86% 30.20 in 10.0 mi NNE 4.6 mph - N/A   Overcast
3:55 PM 57.0 °F - 52.9 °F 86% 30.20 in 10.0 mi NNE 6.9 mph - N/A   Overcast
4:55 PM 56.3 °F - 53.1 °F 89% 30.22 in 10.0 mi North 6.9 mph - N/A   Overcast
5:20 PM 55.4 °F - 53.6 °F 94% 30.20 in 10.0 mi North 5.8 mph - N/A   Overcast
6:27 PM 55.4 °F - 53.6 °F 94% 30.21 in 10.0 mi North 6.9 mph - N/A   Overcast
6:55 PM 54.9 °F - 53.1 °F 94% 30.23 in 10.0 mi North 6.9 mph - N/A   Overcast
7:37 PM 53.6 °F - 53.6 °F 100% 30.22 in 2.5 mi North 6.9 mph - N/A   Overcast
7:55 PM 54.1 °F - 53.1 °F 96% 30.24 in 2.5 mi North 4.6 mph - N/A   Overcast
8:16 PM 53.6 °F - 53.6 °F 100% 30.22 in 2.5 mi North 6.9 mph - N/A   Overcast
8:31 PM 53.6 °F - 53.6 °F 100% 30.22 in 1.5 mi NNE 4.6 mph - N/A   Overcast
8:50 PM 53.6 °F - 53.6 °F 100% 30.22 in 1.0 mi North 4.6 mph - N/A   Overcast
8:55 PM 53.8 °F - 53.2 °F 98% 30.24 in 1.0 mi NNE 4.6 mph - N/A   Overcast
9:37 PM 53.6 °F - 53.6 °F 100% 30.22 in 0.8 mi NNE 8.1 mph - N/A   Overcast
9:55 PM 53.6 °F - 53.2 °F 99% 30.23 in 0.8 mi NNE 4.6 mph - N/A   Overcast
10:55 PM 53.2 °F - 53.1 °F 99% 30.23 in 0.8 mi North 4.6 mph - N/A   Overcast
11:23 PM 53.6 °F - 53.6 °F 100% 30.21 in 0.5 mi NNE 4.6 mph - N/A Fog Fog
11:55 PM 53.1 °F - 52.9 °F 99% 30.22 in 0.2 mi NNE 4.6 mph - N/A Fog Fog